| time (UTC) | temp C | wind direction | speed KPH | gust KPH | rain 1hr cm | rain 24hr cm | rain mn cm | humidity % | barometer mb |
| 20260509224539 | 13 | 360 | 3.2 | 4.8 | 0.00 | 0.00 | 0.00 | 94 | 1013.7 |
| 20260509224031 | 13 | 5 | 4.8 | 4.8 | 0.00 | 0.00 | 0.00 | 94 | 1013.6 |
| 20260509223531 | 13 | 355 | 1.6 | 3.2 | 0.00 | 0.00 | 0.00 | 94 | 1013.6 |
| 20260509223045 | 13 | 355 | 3.2 | 3.2 | 0.00 | 0.00 | 0.00 | 94 | 1013.6 |
| 20260509222538 | 13 | 355 | 3.2 | 4.8 | 0.00 | 0.00 | 0.00 | 94 | 1013.6 |
| 20260509222041 | 13 | 14 | 4.8 | 4.8 | 0.00 | 0.00 | 0.00 | 94 | 1013.5 |
| 20260509221541 | 13 | 57 | 3.2 | 3.2 | 0.00 | 0.00 | 0.00 | 94 | 1013.5 |
| 20260509221028 | 13 | 20 | 1.6 | 3.2 | 0.00 | 0.00 | 1.35 | 94 | 1013.6 |
| 20260509220533 | 13 | 24 | 3.2 | 4.8 | 0.00 | 0.00 | 1.35 | 94 | 1013.6 |
| 20260509215539 | 13 | 15 | 3.2 | 3.2 | 0.00 | 0.00 | 1.35 | 94 | 1013.5 |
| 20260509215041 | 13 | 5 | 3.2 | 3.2 | 0.00 | 0.00 | 1.35 | 94 | 1013.6 |
| 20260509214542 | 13 | 355 | 0.0 | 3.2 | 0.00 | 0.00 | 1.35 | 94 | 1013.6 |
| 20260509214044 | 13 | 355 | 3.2 | 3.2 | 0.00 | 0.00 | 1.35 | 94 | 1013.7 |
| 20260509213541 | 13 | 360 | 3.2 | 3.2 | 0.00 | 0.00 | 1.35 | 94 | 1013.6 |
| 20260509213041 | 13 | 5 | 3.2 | 3.2 | 0.00 | 0.00 | 1.35 | 94 | 1013.6 |
| 20260509212546 | 13 | 34 | 1.6 | 1.6 | 0.00 | 0.00 | 1.35 | 94 | 1013.4 |
| 20260509212044 | 13 | 34 | 0.0 | 1.6 | 0.00 | 0.00 | 1.35 | 94 | 1013.5 |
| 20260509211547 | 13 | 34 | 1.6 | 1.6 | 0.00 | 0.00 | 1.35 | 94 | 1013.3 |
| 20260509211046 | 13 | 34 | 0.0 | 0.0 | 0.00 | 0.00 | 1.35 | 94 | 1013.3 |
| 20260509210529 | 13 | 34 | 0.0 | 1.6 | 0.00 | 0.00 | 1.35 | 94 | 1013.3 |
| 20260509210028 | 13 | 34 | 0.0 | 1.6 | 0.00 | 0.00 | 1.35 | 94 | 1013.3 |
| 20260509205539 | 13 | 34 | 0.0 | 1.6 | 0.00 | 0.00 | 1.35 | 94 | 1013.3 |
| 20260509205040 | 13 | 34 | 1.6 | 1.6 | 0.00 | 0.00 | 1.35 | 94 | 1013.3 |
| 20260509204540 | 14 | 34 | 0.0 | 0.0 | 0.00 | 0.00 | 1.35 | 94 | 1013.3 |
| 20260509203045 | 14 | 34 | 0.0 | 0.0 | 0.00 | 0.00 | 1.35 | 94 | 1013.1 |
| 20260509202037 | 14 | 34 | 3.2 | 3.2 | 0.00 | 0.00 | 1.35 | 94 | 1012.9 |
| 20260509201540 | 14 | 36 | 3.2 | 3.2 | 0.00 | 0.00 | 1.35 | 94 | 1012.9 |
| 20260509200040 | 14 | 52 | 1.6 | 4.8 | 0.00 | 0.00 | 1.35 | 94 | 1012.4 |
| 20260509195529 | 14 | 9 | 3.2 | 3.2 | 0.00 | 0.00 | 1.35 | 94 | 1012.4 |
| 20260509195028 | 14 | 26 | 3.2 | 3.2 | 0.00 | 0.00 | 1.35 | 94 | 1012.3 |
| 20260509194530 | 14 | 36 | 3.2 | 3.2 | 0.00 | 0.00 | 1.35 | 94 | 1012.3 |
| 20260509194047 | 14 | 36 | 1.6 | 3.2 | 0.03 | 0.00 | 1.35 | 94 | 1012.3 |
| 20260509193530 | 14 | 38 | 3.2 | 3.2 | 0.03 | 0.00 | 1.35 | 94 | 1012.1 |
| 20260509193030 | 14 | 51 | 1.6 | 4.8 | 0.03 | 0.00 | 1.35 | 94 | 1012.0 |
| 20260509192535 | 14 | 49 | 4.8 | 4.8 | 0.03 | 0.00 | 1.35 | 94 | 1011.9 |
| 20260509192032 | 14 | 81 | 3.2 | 3.2 | 0.03 | 0.00 | 1.35 | 94 | 1011.9 |
| 20260509191534 | 14 | 138 | 1.6 | 1.6 | 0.03 | 0.00 | 1.35 | 94 | 1011.9 |
| 20260509190531 | 14 | 147 | 1.6 | 1.6 | 0.03 | 0.00 | 1.35 | 94 | 1011.7 |
| 20260509190048 | 14 | 147 | 0.0 | 0.0 | 0.03 | 0.00 | 1.35 | 94 | 1011.6 |
| 20260509184037 | 14 | 150 | 1.6 | 3.2 | 0.03 | 0.00 | 1.35 | 94 | 1011.3 |
| 20260509183038 | 14 | 151 | 3.2 | 6.4 | 0.00 | 0.00 | 1.32 | 94 | 1011.2 |
| 20260509182545 | 14 | 150 | 3.2 | 3.2 | 0.00 | 0.00 | 1.32 | 93 | 1011.1 |
| 20260509182044 | 14 | 140 | 3.2 | 3.2 | 0.00 | 0.00 | 1.32 | 93 | 1011.0 |
| 20260509181532 | 14 | 138 | 3.2 | 3.2 | 0.00 | 0.00 | 1.32 | 93 | 1010.9 |
| 20260509181040 | 14 | 129 | 1.6 | 3.2 | 0.00 | 0.00 | 1.32 | 93 | 1010.9 |
| 20260509180029 | 14 | 139 | 3.2 | 3.2 | 0.03 | 0.00 | 1.32 | 93 | 1010.5 |
| 20260509175539 | 14 | 63 | 1.6 | 1.6 | 0.03 | 0.00 | 1.32 | 94 | 1010.4 |
| 20260509175035 | 14 | 328 | 0.0 | 4.8 | 0.05 | 0.00 | 1.32 | 93 | 1010.7 |
| 20260509174533 | 14 | 328 | 0.0 | 4.8 | 0.05 | 0.00 | 1.32 | 93 | 1010.6 |
| 20260509174035 | 14 | 346 | 1.6 | 1.6 | 0.05 | 0.00 | 1.32 | 93 | 1010.4 |
| 20260509173538 | 14 | 355 | 0.0 | 1.6 | 0.10 | 0.00 | 1.32 | 93 | 1010.4 |
| 20260509173031 | 14 | 355 | 0.0 | 1.6 | 0.13 | 0.00 | 1.32 | 93 | 1010.5 |
| 20260509172538 | 14 | 355 | 1.6 | 1.6 | 0.15 | 0.00 | 1.32 | 93 | 1010.6 |
| 20260509172032 | 14 | 355 | 1.6 | 1.6 | 0.20 | 0.00 | 1.32 | 93 | 1010.6 |
| 20260509170542 | 14 | 9 | 6.4 | 16.1 | 0.36 | 0.00 | 1.30 | 93 | 1010.5 |
| 20260509170036 | 14 | 320 | 11.3 | 16.1 | 0.43 | 0.00 | 1.30 | 92 | 1010.5 |
| 20260509165525 | 14 | 351 | 8.0 | 16.1 | 0.48 | 0.00 | 1.30 | 92 | 1010.5 |
| 20260509165045 | 14 | 319 | 8.0 | 11.3 | 0.51 | 0.00 | 1.27 | 92 | 1010.9 |
| 20260509164540 | 14 | 344 | 8.0 | 9.7 | 0.56 | 0.00 | 1.27 | 92 | 1011.2 |
| 20260509164044 | 14 | 342 | 4.8 | 8.0 | 0.56 | 0.00 | 1.27 | 92 | 1011.5 |
| 20260509163544 | 15 | 355 | 4.8 | 8.0 | 0.00 | 0.00 | 1.22 | 92 | 1011.7 |
| 20260509163037 | 15 | 355 | 4.8 | 8.0 | 0.00 | 0.00 | 1.19 | 92 | 1011.9 |
| 20260509162545 | 15 | 360 | 4.8 | 8.0 | 0.00 | 0.00 | 1.17 | 92 | 1012.0 |
| 20260509162043 | 15 | 101 | 1.6 | 3.2 | 0.00 | 0.00 | 1.12 | 92 | 1012.3 |
| 20260509161549 | 15 | 123 | 1.6 | 1.6 | 0.00 | 0.00 | 1.07 | 91 | 1012.5 |
| 20260509161030 | 15 | 123 | 0.0 | 4.8 | 0.00 | 0.00 | 0.99 | 92 | 1012.7 |
| 20260509160533 | 15 | 123 | 1.6 | 4.8 | 0.00 | 0.00 | 0.97 | 91 | 1012.9 |
| 20260509160033 | 15 | 138 | 0.0 | 4.8 | 0.00 | 0.00 | 0.86 | 91 | 1013.1 |
| 20260509155543 | 15 | 138 | 1.6 | 6.4 | 0.00 | 0.00 | 0.81 | 91 | 1013.1 |
| 20260509155045 | 15 | 136 | 3.2 | 6.4 | 0.00 | 0.00 | 0.79 | 91 | 1013.1 |
| 20260509154546 | 15 | 142 | 3.2 | 6.4 | 0.00 | 0.00 | 0.74 | 91 | 1013.1 |
| 20260509154042 | 15 | 199 | 1.6 | 3.2 | 0.00 | 0.00 | 0.71 | 91 | 1013.1 |